| time (UTC) | temp F | wind direction | speed knots | gust knots | rain 1hr in | rain 24hr in | rain mn in | humidity % | barometer mb |
| 20260506122713 | 64 | 217 | 0.0 | 0.0 | 0.01 | 0.02 | 0.02 | 94 | 1008.8 |
| 20260506121213 | 64 | 247 | 0.0 | 0.0 | 0.01 | 0.02 | 0.02 | 93 | 1008.8 |
| 20260506115713 | 64 | 231 | 0.0 | 0.0 | 0.02 | 0.02 | 0.02 | 93 | 1008.6 |
| 20260506114213 | 64 | 201 | 0.0 | 0.9 | 0.01 | 0.01 | 0.01 | 92 | 1008.6 |
| 20260506111213 | 65 | 242 | 0.0 | 0.9 | 0.01 | 0.01 | 0.01 | 91 | 1008.5 |
| 20260506105713 | 65 | 130 | 0.0 | 0.9 | 0.00 | 0.00 | 0.00 | 89 | 1008.1 |
| 20260506104213 | 65 | 206 | 0.0 | 0.9 | 0.00 | 0.00 | 0.00 | 88 | 1007.9 |
| 20260506101213 | 66 | 247 | 0.0 | 0.0 | 0.00 | 0.00 | 0.00 | 85 | 1007.5 |
| 20260506095713 | 67 | 249 | 0.0 | 1.7 | 0.00 | 0.00 | 0.00 | 83 | 1007.6 |
| 20260506094214 | 67 | 205 | 0.0 | 0.9 | 0.00 | 0.00 | 0.00 | 80 | 1007.2 |
| 20260506092714 | 68 | 244 | 0.0 | 0.9 | 0.00 | 0.00 | 0.00 | 79 | 1007.6 |
| 20260506091213 | 68 | 242 | 0.0 | 0.9 | 0.00 | 0.00 | 0.00 | 78 | 1007.4 |
| 20260506084213 | 68 | 190 | 0.9 | 3.5 | 0.00 | 0.00 | 0.00 | 77 | 1007.3 |
| 20260506082713 | 68 | 227 | 0.9 | 3.5 | 0.00 | 0.00 | 0.00 | 76 | 1007.2 |
| 20260506081213 | 68 | 209 | 0.9 | 2.6 | 0.00 | 0.00 | 0.00 | 75 | 1007.1 |
| 20260506072714 | 68 | 215 | 0.0 | 3.5 | 0.00 | 0.00 | 0.00 | 73 | 1007.0 |
| 20260506071214 | 69 | 195 | 0.9 | 1.7 | 0.00 | 0.00 | 0.00 | 72 | 1007.0 |
| 20260506061214 | 69 | 181 | 0.0 | 0.9 | 0.00 | 0.00 | 0.00 | 69 | 1007.8 |
| 20260506044214 | 69 | 230 | 0.0 | 0.9 | 0.00 | 0.00 | 0.00 | 66 | 1008.4 |
| 20260506042714 | 70 | 225 | 0.0 | 0.9 | 0.00 | 0.00 | 0.00 | 65 | 1008.3 |
| 20260506041214 | 70 | 252 | 0.0 | 0.9 | 0.00 | 0.00 | 0.00 | 65 | 1008.3 |
| 20260506035714 | 70 | 238 | 0.0 | 0.9 | 0.00 | 0.00 | 0.00 | 65 | 1008.3 |
| 20260506034214 | 70 | 225 | 0.0 | 0.9 | 0.00 | 0.00 | 0.00 | 64 | 1008.4 |
| 20260506032714 | 70 | 242 | 0.0 | 0.9 | 0.00 | 0.00 | 0.00 | 63 | 1008.8 |
| 20260506031214 | 71 | 239 | 0.0 | 1.7 | 0.00 | 0.00 | 0.00 | 62 | 1008.7 |
| 20260506025714 | 71 | 229 | 0.0 | 0.9 | 0.00 | 0.00 | 0.00 | 62 | 1008.6 |
| 20260506024214 | 71 | 238 | 0.0 | 1.7 | 0.00 | 0.00 | 0.00 | 62 | 1009.1 |
| 20260506022714 | 71 | 197 | 0.9 | 3.5 | 0.00 | 0.00 | 0.00 | 61 | 1008.6 |
| 20260506015714 | 71 | 214 | 0.9 | 1.7 | 0.00 | 0.00 | 0.00 | 62 | 1008.2 |
| 20260506014214 | 70 | 223 | 0.0 | 1.7 | 0.00 | 0.00 | 0.00 | 62 | 1008.1 |
| 20260506012715 | 70 | 254 | 0.0 | 0.9 | 0.00 | 0.00 | 0.00 | 61 | 1008.0 |
| 20260506011215 | 70 | 246 | 0.0 | 0.0 | 0.00 | 0.00 | 0.00 | 60 | 1007.9 |
| 20260506005715 | 70 | 246 | 0.0 | 0.0 | 0.00 | 0.00 | 0.00 | 60 | 1007.7 |
| 20260506004215 | 70 | 249 | 0.0 | 0.0 | 0.00 | 0.00 | 0.00 | 60 | 1007.7 |
| 20260506001215 | 70 | 249 | 0.0 | 0.0 | 0.00 | 0.00 | 0.00 | 61 | 1008.0 |
| 20260505235715 | 69 | 249 | 0.0 | 0.0 | 0.00 | 0.00 | 0.00 | 61 | 1008.1 |
| 20260505232715 | 71 | 248 | 0.0 | 5.2 | 0.00 | 0.00 | 0.00 | 65 | 1008.1 |
| 20260505231215 | 71 | 243 | 0.0 | 0.9 | 0.00 | 0.00 | 0.00 | 63 | 1008.1 |
| 20260505225715 | 71 | 234 | 0.0 | 0.9 | 0.00 | 0.00 | 0.00 | 60 | 1008.0 |
| 20260505224215 | 70 | 242 | 0.0 | 0.9 | 0.00 | 0.00 | 0.00 | 59 | 1008.0 |
| 20260505221215 | 71 | 244 | 0.0 | 0.9 | 0.00 | 0.00 | 0.00 | 60 | 1008.0 |
| 20260505214215 | 71 | 252 | 0.0 | 0.9 | 0.00 | 0.00 | 0.00 | 59 | 1007.9 |
| 20260505205715 | 75 | 189 | 0.9 | 1.7 | 0.00 | 0.00 | 0.00 | 47 | 1008.5 |
| 20260505204215 | 76 | 202 | 1.7 | 4.3 | 0.00 | 0.00 | 0.00 | 44 | 1008.6 |
| 20260505202715 | 77 | 254 | 0.9 | 3.5 | 0.00 | 0.00 | 0.00 | 51 | 1008.7 |
| 20260505201215 | 79 | 226 | 1.7 | 3.5 | 0.00 | 0.00 | 0.00 | 49 | 1009.0 |
| 20260505195715 | 81 | 206 | 1.7 | 5.2 | 0.00 | 0.00 | 0.00 | 48 | 1009.2 |
| 20260505194215 | 80 | 240 | 2.6 | 6.1 | 0.00 | 0.00 | 0.00 | 47 | 1009.1 |
| 20260505192716 | 79 | 144 | 0.9 | 3.5 | 0.00 | 0.00 | 0.00 | 44 | 1009.4 |
| 20260505191219 | 79 | 228 | 1.7 | 6.1 | 0.00 | 0.00 | 0.00 | 45 | 1009.6 |
| 20260505185716 | 79 | 168 | 1.7 | 3.5 | 0.00 | 0.00 | 0.00 | 43 | 1009.6 |
| 20260505184216 | 79 | 243 | 1.7 | 5.2 | 0.00 | 0.00 | 0.00 | 45 | 1009.8 |
| 20260505182716 | 79 | 222 | 1.7 | 3.5 | 0.00 | 0.00 | 0.00 | 46 | 1009.9 |
| 20260505181218 | 79 | 246 | 0.9 | 5.2 | 0.00 | 0.00 | 0.00 | 50 | 1010.4 |
| 20260505175716 | 78 | 135 | 1.7 | 3.5 | 0.00 | 0.00 | 0.00 | 49 | 1010.3 |
| 20260505174216 | 78 | 219 | 0.9 | 4.3 | 0.00 | 0.00 | 0.00 | 51 | 1010.4 |
| 20260505172716 | 77 | 113 | 0.9 | 2.6 | 0.00 | 0.00 | 0.00 | 53 | 1010.8 |
| 20260505171216 | 76 | 188 | 1.7 | 5.2 | 0.00 | 0.00 | 0.00 | 54 | 1011.2 |
| 20260505165716 | 77 | 220 | 0.9 | 4.3 | 0.00 | 0.00 | 0.00 | 54 | 1011.5 |
| 20260505164219 | 75 | 218 | 1.7 | 4.3 | 0.00 | 0.00 | 0.00 | 55 | 1011.6 |
| 20260505162717 | 75 | 213 | 0.9 | 3.5 | 0.00 | 0.00 | 0.00 | 56 | 1011.6 |
| 20260505161216 | 75 | 231 | 0.0 | 0.9 | 0.00 | 0.00 | 0.00 | 60 | 1011.4 |
| 20260505152716 | 71 | 198 | 0.9 | 1.7 | 0.00 | 0.00 | 0.00 | 64 | 1011.9 |
| 20260505151217 | 70 | 267 | 0.9 | 3.5 | 0.00 | 0.00 | 0.00 | 66 | 1012.1 |